When you browse on this site, cookies collect data to enhance your experience and personalize the content and advertising you see.
Visit our Privacy Policy to learn more. By continuing to use the site, you agree to this use of cookies and data.
  • In Hungary
  • List of Countries
  • For 7 days
  • Water Temperature
  • Weather Map
  • News
  • Weather Widgets
  • user-avatar
    Login

    Hourly Weather Caño Grande

    Today, 22 November, Friday

    Time Temperature Precipitation Wind Pressure Humidity
    00:00 +25°C° 0.6 mm 1 mps 750 mmHg 92%
    01:00 +25°C° 0.6 mm 1 mps 749 mmHg 92%
    02:00 +24°C° 0.4 mm 1 mps 749 mmHg 91%
    03:00 +24°C° 0.4 mm 1 mps 749 mmHg 91%
    04:00 +22°C° 0.4 mm 0 mps 749 mmHg 91%
    05:00 +25°C° 0.1 mm 1 mps 750 mmHg 89%
    06:00 +26°C° 0.1 mm 1 mps 750 mmHg 88%
    07:00 +26°C° 0.1 mm 1 mps 750 mmHg 86%
    08:00 +28°C° 0.1 mm 1 mps 750 mmHg 79%
    09:00 +30°C° 0.1 mm 1 mps 751 mmHg 72%
    10:00 +32°C° 0.1 mm 1 mps 751 mmHg 65%
    11:00 +32°C° 0.3 mm 1 mps 750 mmHg 67%
    12:00 +32°C° 0.3 mm 2 mps 749 mmHg 68%
    13:00 +32°C° 0.3 mm 2 mps 748 mmHg 70%
    14:00 +31°C° 0.8 mm 1 mps 748 mmHg 74%
    15:00 +31°C° 0.8 mm 1 mps 747 mmHg 78%
    16:00 +30°C° 0.8 mm 1 mps 747 mmHg 83%
    17:00 +29°C° 1.1 mm 1 mps 748 mmHg 86%
    18:00 +28°C° 1.1 mm 1 mps 748 mmHg 88%
    19:00 +24°C° 1.1 mm 0 mps 749 mmHg 91%
    20:00 +26°C° 1.1 mm 1 mps 749 mmHg 92%
    21:00 +26°C° 1.1 mm 1 mps 750 mmHg 92%
    22:00 +26°C° 1.1 mm 1 mps 750 mmHg 93%
    23:00 +25°C° 0.4 mm 1 mps 750 mmHg 92%

    Tomorrow, 23 November, Saturday

    Time Temperature Precipitation Wind Pressure Humidity
    00:00 +25°C° 0.4 mm 1 mps 750 mmHg 92%
    01:00 +25°C° 0.4 mm 1 mps 749 mmHg 92%
    02:00 +25°C° 0.2 mm 1 mps 749 mmHg 91%
    03:00 +25°C° 0.2 mm 1 mps 749 mmHg 91%
    04:00 +25°C° 0.2 mm 1 mps 749 mmHg 91%
    05:00 +23°C° 0 mm 0 mps 750 mmHg 90%
    06:00 +24°C° 0 mm 0 mps 750 mmHg 89%
    07:00 +24°C° 0 mm 0 mps 751 mmHg 88%
    08:00 +26°C° 0.1 mm 0 mps 751 mmHg 82%
    09:00 +29°C° 0.1 mm 1 mps 751 mmHg 76%
    10:00 +31°C° 0.1 mm 1 mps 751 mmHg 71%
    11:00 +31°C° 0.3 mm 1 mps 750 mmHg 71%
    12:00 +31°C° 0.3 mm 1 mps 749 mmHg 71%
    13:00 +32°C° 0.3 mm 1 mps 748 mmHg 72%
    14:00 +31°C° 0.9 mm 1 mps 748 mmHg 77%
    15:00 +30°C° 0.9 mm 1 mps 748 mmHg 82%
    16:00 +30°C° 0.9 mm 1 mps 747 mmHg 86%
    17:00 +27°C° 1 mm 0 mps 748 mmHg 88%
    18:00 +26°C° 1 mm 0 mps 748 mmHg 90%
    19:00 +25°C° 1 mm 0 mps 749 mmHg 92%
    20:00 +24°C° 0.4 mm 0 mps 750 mmHg 92%
    21:00 +26°C° 0.4 mm 1 mps 750 mmHg 93%
    22:00 +25°C° 0.4 mm 1 mps 750 mmHg 94%
    23:00 +25°C° 0.1 mm 1 mps 750 mmHg 94%

    Day after tomorrow, 24 November, Sunday

    Time Temperature Precipitation Wind Pressure Humidity
    00:00 +25°C° 0.1 mm 1 mps 750 mmHg 94%
    01:00 +25°C° 0.1 mm 1 mps 749 mmHg 94%
    02:00 +25°C° 0 mm 1 mps 749 mmHg 94%
    03:00 +25°C° 0 mm 1 mps 749 mmHg 94%
    04:00 +24°C° 0 mm 1 mps 749 mmHg 93%
    05:00 +23°C° 0 mm 0 mps 749 mmHg 92%
    06:00 +24°C° 0 mm 0 mps 750 mmHg 91%
    07:00 +24°C° 0 mm 0 mps 750 mmHg 90%
    08:00 +26°C° 0.1 mm 0 mps 750 mmHg 84%
    09:00 +29°C° 0.1 mm 1 mps 750 mmHg 78%
    10:00 +31°C° 0.1 mm 1 mps 750 mmHg 72%
    11:00 +31°C° 0.4 mm 1 mps 749 mmHg 72%
    12:00 +31°C° 0.4 mm 1 mps 748 mmHg 72%
    13:00 +32°C° 0.4 mm 2 mps 748 mmHg 71%
    14:00 +31°C° 0.8 mm 1 mps 747 mmHg 76%
    15:00 +31°C° 0.8 mm 1 mps 747 mmHg 80%
    16:00 +30°C° 0.8 mm 1 mps 746 mmHg 85%
    17:00 +29°C° 1.8 mm 1 mps 747 mmHg 88%
    18:00 +28°C° 1.8 mm 1 mps 747 mmHg 91%
    19:00 +25°C° 1.8 mm 0 mps 748 mmHg 94%
    20:00 +26°C° 1.2 mm 1 mps 748 mmHg 94%
    21:00 +26°C° 1.2 mm 1 mps 749 mmHg 94%
    22:00 +26°C° 1.2 mm 1 mps 749 mmHg 94%
    23:00 +25°C° 0.2 mm 1 mps 749 mmHg 94%

    25 November, Monday

    Time Temperature Precipitation Wind Pressure Humidity
    00:00 +25°C° 0.2 mm 1 mps 749 mmHg 94%
    01:00 +25°C° 0.2 mm 1 mps 748 mmHg 93%
    02:00 +25°C° 0 mm 1 mps 748 mmHg 93%
    03:00 +25°C° 0 mm 1 mps 748 mmHg 93%
    04:00 +23°C° 0 mm 0 mps 748 mmHg 92%
    05:00 +23°C° 0 mm 0 mps 748 mmHg 91%
    06:00 +24°C° 0 mm 0 mps 749 mmHg 90%
    07:00 +24°C° 0 mm 0 mps 749 mmHg 89%
    08:00 +28°C° 0 mm 1 mps 749 mmHg 82%
    09:00 +30°C° 0 mm 1 mps 749 mmHg 75%
    10:00 +31°C° 0 mm 1 mps 749 mmHg 69%
    11:00 +32°C° 0.1 mm 1 mps 748 mmHg 69%
    12:00 +32°C° 0.1 mm 1 mps 747 mmHg 69%
    13:00 +32°C° 0.1 mm 1 mps 746 mmHg 70%
    14:00 +32°C° 0.6 mm 1 mps 746 mmHg 74%
    15:00 +31°C° 0.6 mm 1 mps 746 mmHg 78%
    16:00 +31°C° 0.6 mm 1 mps 745 mmHg 83%
    17:00 +29°C° 1.3 mm 1 mps 746 mmHg 86%
    18:00 +28°C° 1.3 mm 1 mps 747 mmHg 88%
    19:00 +27°C° 1.3 mm 1 mps 747 mmHg 91%
    20:00 +26°C° 0.7 mm 1 mps 748 mmHg 92%
    21:00 +26°C° 0.7 mm 1 mps 748 mmHg 92%
    22:00 +25°C° 0.7 mm 1 mps 749 mmHg 92%
    23:00 +25°C° 0.1 mm 1 mps 748 mmHg 92%

    26 November, Tuesday

    Time Temperature Precipitation Wind Pressure Humidity
    00:00 +25°C° 0.1 mm 1 mps 748 mmHg 91%
    01:00 +25°C° 0.1 mm 1 mps 748 mmHg 90%
    02:00 +25°C° 0 mm 1 mps 748 mmHg 89%
    03:00 +25°C° 0 mm 1 mps 748 mmHg 89%
    04:00 +25°C° 0 mm 1 mps 748 mmHg 88%
    05:00 +26°C° 0 mm 1 mps 748 mmHg 87%
    06:00 +26°C° 0 mm 1 mps 749 mmHg 86%
    07:00 +27°C° 0 mm 1 mps 749 mmHg 84%
    08:00 +28°C° 0 mm 1 mps 749 mmHg 78%
    09:00 +30°C° 0 mm 1 mps 749 mmHg 72%
    10:00 +32°C° 0 mm 1 mps 749 mmHg 66%
    11:00 +32°C° 0.1 mm 1 mps 749 mmHg 66%
    12:00 +33°C° 0.1 mm 1 mps 748 mmHg 66%
    13:00 +33°C° 0.1 mm 1 mps 747 mmHg 66%
    14:00 +32°C° 0.6 mm 1 mps 747 mmHg 72%
    15:00 +32°C° 0.6 mm 1 mps 746 mmHg 78%
    16:00 +31°C° 0.6 mm 1 mps 746 mmHg 84%
    17:00 +30°C° 0.4 mm 1 mps 747 mmHg 86%
    18:00 +28°C° 0.4 mm 1 mps 747 mmHg 88%
    19:00 +27°C° 0.4 mm 1 mps 748 mmHg 90%
    20:00 +27°C° 0.3 mm 1 mps 748 mmHg 90%
    21:00 +26°C° 0.3 mm 1 mps 749 mmHg 89%
    22:00 +26°C° 0.3 mm 1 mps 749 mmHg 89%
    23:00 +26°C° 0 mm 1 mps 749 mmHg 88%

    27 November, Wednesday

    Time Temperature Precipitation Wind Pressure Humidity
    00:00 +26°C° 0 mm 1 mps 749 mmHg 87%
    01:00 +26°C° 0 mm 1 mps 748 mmHg 85%
    02:00 +25°C° 0 mm 1 mps 748 mmHg 85%
    03:00 +25°C° 0 mm 1 mps 748 mmHg 84%
    04:00 +25°C° 0 mm 1 mps 748 mmHg 84%
    05:00 +26°C° 0 mm 1 mps 749 mmHg 83%
    06:00 +26°C° 0 mm 1 mps 749 mmHg 82%
    07:00 +27°C° 0 mm 1 mps 750 mmHg 81%
    08:00 +29°C° 0 mm 1 mps 750 mmHg 76%
    09:00 +30°C° 0 mm 1 mps 750 mmHg 70%
    10:00 +32°C° 0 mm 1 mps 750 mmHg 65%
    11:00 +33°C° 0.2 mm 1 mps 749 mmHg 65%
    12:00 +33°C° 0.2 mm 1 mps 748 mmHg 65%
    13:00 +35°C° 0.2 mm 2 mps 747 mmHg 65%
    14:00 +33°C° 1.3 mm 1 mps 747 mmHg 71%
    15:00 +32°C° 1.3 mm 1 mps 747 mmHg 78%
    16:00 +31°C° 1.3 mm 1 mps 747 mmHg 85%
    17:00 +30°C° 1.7 mm 1 mps 747 mmHg 87%
    18:00 +29°C° 1.7 mm 1 mps 748 mmHg 89%
    19:00 +27°C° 1.7 mm 1 mps 748 mmHg 91%
    20:00 +27°C° 0.6 mm 1 mps 749 mmHg 91%
    21:00 +27°C° 0.6 mm 1 mps 749 mmHg 91%
    22:00 +26°C° 0.6 mm 1 mps 749 mmHg 91%
    23:00 +26°C° 0.1 mm 1 mps 749 mmHg 90%
    Show more